User: anonymous
Location: Cherry Springs State Park
(41.6616°N, 77.8240°W)
Time: 10:36:15
(UTC-04:00)
Language:

Cosmos 1437 - Orbit

View from above orbital plane
View from above orbital plane
View from above satellite
View from above satellite

Ground track
Ground track

The orbit data is extracted from the following two-line orbital elements,

1 13770U 83003A   14231.15558288  .00005278  00000-0  17122-3 0  6259
2 13770 081.1677 321.0365 0010019 257.8040 141.9112 15.31731202727210
Epoch (UTC): 19 August 2014 03:44:02
Eccentricity: 0.0010019
inclination: 81.1677°
perigee height: 464 km
apogee height: 477 km
right ascension of ascending node: 321.0365°
argument of perigee: 257.8040°
revolutions per day: 15.31731202
mean anomaly at epoch: 141.9112°
orbit number at epoch: 72721

The dashed part of the orbit path shows where the satellite is in the earth's shadow,  

DLR